STARLINK-32340

Last updated on Sun Oct 06 2024 00:02:04 GMT+0000 (Coordinated Universal Time)

1 61008U 24158U 24279.39535390 .00002444 00000+0 27172-4 0 9992 2 61008 53.1585 327.0602 0001556 85.5470 274.5725 15.67564975 5855
UTC large
Height (km)
Speed (km/s)
/
Latitude / Longitude
Inclination (degrees)
Orbital Period (minutes)
Azimuth
Elevation
Range (km)
Doppler Factor

Next 0 passes for location: London (51.5072 / 0.1276)

Sorry there are no passes over London.